1503450000.92,39139,15.38,73610.0,-5.07,-7.95,-9.97,0,*5F
1503450002.15,39140,15.38,73606.0,-5.05,-7.95,-9.97,0,*53
1503450003.37,39141,15.38,73596.5,-5.05,-7.87,-9.83,0,*54
1503450004.59,39142,15.38,73600.3,-5.07,-7.87,-9.75,0,*5C
1503450005.82,39143,15.38,73594.3,-5.05,-7.83,-9.83,0,*52
1503450007.01,39144,15.38,73588.3,-5.05,-7.83,-9.89,0,*5F
1503450008.25,39145,15.38,73602.3,-5.05,-7.95,-10.01,0,*61
1503450009.52,39146,15.38,73598.8,-5.07,-7.69,-9.83,0,*51
1503450010.74,39147,15.38,73602.8,-5.05,-7.83,-9.83,0,*56
1503450012.0,39148,15.38,73604.8,-5.07,-7.99,-10.01,0,*62
1503450013.24,39149,15.38,73604.5,-5.05,-8.07,-10.01,0,*69
1503450014.49,39150,15.38,73592.3,-5.07,-8.07,-10.01,0,*63
1503450015.74,39151,15.38,73590.5,-5.07,-8.07,-9.89,0,*5A
1503450017.01,39152,15.38,73590.3,-5.07,-8.07,-9.61,0,*5F
1503450018.24,39153,15.38,73594.5,-5.05,-7.99,-9.75,0,*51
1503450019.48,39154,15.38,73608.5,-5.07,-7.99,-9.97,0,*58
1503450020.74,39155,15.38,73620.8,-5.07,-7.99,-10.15,0,*6B
1503450022.0,39156,15.38,73626.3,-5.07,-8.11,-10.15,0,*67
1503450023.26,39157,15.38,73614.3,-5.07,-8.11,-10.15,0,*66
1503450024.51,39158,15.38,73610.5,-5.07,-7.99,-10.09,0,*6B
1503450025.76,39159,15.38,73606.0,-5.07,-7.99,-10.09,0,*6A
1503450027.0,39160,15.38,73604.8,-5.07,-7.95,-9.97,0,*53
1503450028.25,39161,15.38,73606.5,-5.07,-7.73,-9.27,0,*51
1503450029.49,39162,15.38,73598.0,-5.05,-7.43,-8.81,0,*5E
1503450030.75,39163,15.38,73580.8,-5.07,-7.27,-8.81,0,*5F
1503450032.02,39164,15.38,73574.8,-5.07,-7.43,-9.49,0,*5F
1503450033.27,39165,15.38,73556.8,-5.05,-7.61,-9.61,0,*56
1503450034.54,39166,15.38,73558.0,-5.07,-7.69,-9.57,0,*5A
1503450035.78,39167,15.38,73558.8,-5.07,-7.53,-9.37,0,*54
1503450036.97,39168,15.38,73564.3,-5.05,-7.53,-9.31,0,*5F
1503450038.23,39169,15.38,73572.0,-5.05,-7.61,-9.37,0,*59
1503450039.5,39170,15.38,73574.0,-5.07,-7.69,-9.45,0,*5E
1503450040.72,39171,15.38,73588.3,-5.05,-7.61,-9.19,0,*5C
1503450041.96,39172,15.38,73598.8,-5.07,-7.57,-9.19,0,*58
1503450043.19,39173,15.38,73586.8,-5.05,-7.43,-9.05,0,*53
1503450044.41,39174,15.38,73596.8,-5.05,-7.43,-9.31,0,*53
1503450045.65,39175,15.38,73598.8,-5.05,-7.43,-9.57,0,*52
1503450046.91,39176,15.38,73586.3,-5.05,-7.57,-9.61,0,*51
1503450048.15,39177,15.38,73608.0,-5.03,-7.65,-9.79,0,*5E
1503450049.42,39178,15.38,73610.0,-5.03,-7.77,-9.83,0,*57
1503450050.69,39179,15.38,73606.3,-5.03,-7.91,-9.83,0,*5E
1503450051.93,39180,15.38,73608.3,-5.03,-7.95,-9.93,0,*5D
1503450053.17,39181,15.38,73608.5,-5.03,-7.91,-9.97,0,*5C
1503450054.42,39182,15.38,73614.5,-5.03,-7.95,-9.97,0,*5B
1503450055.66,39183,15.38,73618.3,-5.03,-7.95,-9.93,0,*5E
1503450056.91,39184,15.38,73612.5,-5.03,-7.95,-9.93,0,*59
1503450058.14,39185,15.38,73608.5,-5.05,-7.95,-10.01,0,*6D
1503450059.36,39186,15.38,73600.5,-5.03,-7.83,-9.93,0,*5C
1503450060.58,39187,15.38,73618.8,-5.03,-7.83,-9.93,0,*5D
1503450061.8,39188,15.38,73614.5,-5.03,-7.83,-9.79,0,*56
1503450063.05,39189,15.38,73604.8,-5.03,-7.65,-9.71,0,*57
1503450064.3,39190,15.38,73592.5,-5.03,-7.65,-9.71,0,*5F
1503450065.52,39191,15.38,73586.0,-5.03,-7.83,-9.93,0,*5A
1503450066.76,39192,15.38,73608.8,-5.03,-7.91,-9.93,0,*5A
1503450068.03,39193,15.38,73614.0,-5.03,-7.77,-9.83,0,*52
1503450069.27,39194,15.38,73616.3,-5.01,-7.91,-9.83,0,*5F
1503450070.54,39195,15.38,73614.3,-5.03,-7.91,-9.83,0,*5C
1503450071.78,39196,15.38,73618.0,-5.03,-7.91,-9.97,0,*5A
1503450073.02,39197,15.38,73608.8,-5.03,-7.91,-9.97,0,*5B
1503450074.22,39198,15.38,73602.5,-5.05,-7.83,-9.89,0,*5E
1503450075.47,39199,15.38,73618.5,-5.05,-7.95,-9.45,0,*58
1503450076.67,39200,15.38,73614.5,-5.05,-7.83,-9.27,0,*58
1503450077.91,39201,15.38,73612.5,-5.03,-7.57,-9.23,0,*52
1503450079.15,39202,15.38,73598.0,-5.01,-7.65,-9.57,0,*51
1503450080.42,39203,15.38,73598.0,-5.03,-7.65,-9.57,0,*52
1503450081.69,39204,15.38,73602.5,-5.03,-7.77,-9.53,0,*52
1503450082.94,39205,15.38,73596.0,-5.03,-7.77,-9.71,0,*53
1503450084.18,39206,15.38,73584.5,-5.03,-7.77,-9.71,0,*50
1503450085.43,39207,15.38,73580.0,-5.03,-7.83,-9.83,0,*57
1503450086.69,39208,15.38,73572.0,-5.03,-7.95,-9.83,0,*5F
1503450087.92,39209,15.38,73578.0,-5.03,-8.17,-10.05,0,*6D
1503450089.17,39210,15.38,73574.3,-5.05,-8.07,-9.83,0,*54
1503450090.42,39211,15.38,73594.8,-5.05,-7.69,-9.49,0,*54
1503450091.67,39212,15.38,73600.5,-5.05,-7.61,-9.49,0,*5F
1503450092.87,39213,15.38,73608.8,-5.05,-7.83,-9.71,0,*59
1503450094.07,39214,15.38,73594.5,-5.05,-7.87,-9.89,0,*5D
1503450095.31,39215,15.38,73582.5,-5.07,-7.95,-9.97,0,*52
1503450096.51,39216,15.38,73598.0,-5.05,-7.87,-9.97,0,*50
1503450097.71,39217,15.38,73612.8,-5.05,-7.87,-9.89,0,*5E
1503450098.91,39218,15.31,73610.5,-5.05,-7.87,-9.89,0,*51
1503450100.13,39219,15.38,73610.3,-5.05,-7.87,-9.83,0,*5A
1503450101.33,39220,15.31,73604.3,-5.05,-7.87,-9.89,0,*5A
1503450102.52,39221,15.38,73612.3,-5.05,-7.87,-9.89,0,*5B
1503450103.75,39222,15.38,73616.5,-5.05,-7.95,-9.89,0,*5B
1503450104.97,39223,15.38,73610.0,-5.05,-7.95,-9.97,0,*55
1503450106.19,39224,15.38,73618.8,-5.05,-7.95,-9.97,0,*52
1503450107.42,39225,15.38,73618.3,-5.05,-7.87,-9.83,0,*55
1503450108.65,39226,15.38,73616.8,-5.05,-7.73,-9.75,0,*54
1503450109.87,39227,15.38,73616.8,-5.05,-7.83,-9.83,0,*53
1503450111.1,39228,15.38,73618.8,-5.05,-7.73,-9.71,0,*5E
1503450112.3,39229,15.38,73620.8,-5.05,-7.87,-9.71,0,*54
1503450113.55,39230,15.38,73614.5,-5.07,-7.69,-9.75,0,*5A
1503450114.77,39231,15.38,73620.5,-5.05,-7.83,-9.83,0,*54
1503450116.01,39232,15.38,73616.5,-5.03,-7.69,-9.71,0,*58
1503450117.26,39233,15.38,73616.5,-5.03,-7.53,-9.41,0,*53
1503450118.53,39234,15.38,73618.5,-5.03,-7.65,-9.53,0,*52
1503450119.78,39235,15.31,73618.8,-5.03,-7.57,-9.27,0,*51
1503450121.05,39236,15.38,73614.5,-5.03,-7.65,-9.11,0,*56
1503450122.3,39237,15.38,73606.8,-5.03,-7.65,-8.89,0,*57
1503450123.54,39238,15.38,73590.8,-5.03,-7.35,-8.17,0,*5A
1503450124.78,39239,15.38,73588.0,-5.03,-7.11,-7.95,0,*58
1503450126.03,39240,15.38,73586.3,-5.03,-6.77,-7.65,0,*58
1503450127.22,39241,15.38,73584.5,-5.01,-6.59,-7.49,0,*59
1503450128.44,39242,15.38,73590.5,-5.01,-6.43,-7.35,0,*5A
1503450129.66,39243,15.38,73594.3,-5.01,-6.31,-7.39,0,*52
1503450130.88,39244,15.38,73602.0,-5.01,-6.43,-8.03,0,*56
1503450132.09,39245,15.31,73600.0,-4.97,-6.69,-8.67,0,*53
1503450133.3,39246,15.38,73622.3,-4.97,-6.85,-8.59,0,*5F
1503450134.55,39247,15.31,73610.5,-4.97,-6.93,-8.55,0,*55
1503450135.83,39248,15.31,73594.3,-4.97,-6.93,-7.73,0,*51
1503450137.05,39249,15.38,73580.5,-4.95,-6.43,-7.43,0,*5C
1503450138.3,39250,15.38,73556.8,-4.97,-6.51,-7.77,0,*52
1503450139.54,39251,15.38,73584.0,-4.95,-6.63,-7.91,0,*58
1503450140.79,39252,15.38,73590.0,-4.97,-6.55,-7.61,0,*53
1503450142.0,39253,15.31,73596.8,-4.95,-6.69,-8.03,0,*54
1503450143.2,39254,15.38,73596.8,-4.95,-6.51,-8.41,0,*5E
1503450144.42,39255,15.38,73556.5,-4.95,-6.93,-8.29,0,*5F
1503450145.66,39256,15.38,73550.3,-4.95,-6.97,-8.81,0,*5A
1503450146.9,39257,15.38,73554.5,-4.93,-7.15,-8.81,0,*56
1503450148.14,39258,15.38,73578.8,-4.93,-7.27,-8.93,0,*5B
1503450149.41,39259,15.38,73616.8,-4.93,-7.31,-9.15,0,*52
1503450150.65,39260,15.31,73596.8,-4.93,-7.39,-9.31,0,*56
1503450151.86,39261,15.31,73590.0,-4.91,-7.39,-9.31,0,*55
1503450153.11,39262,15.38,73572.8,-4.93,-7.19,-9.15,0,*50
1503450154.33,39263,15.31,73560.8,-4.93,-7.19,-9.19,0,*5D
1503450155.58,39264,15.38,73570.8,-4.93,-7.19,-9.15,0,*56
1503450156.83,39265,15.38,73586.0,-4.91,-7.31,-9.37,0,*5F
1503450158.08,39266,15.38,73588.8,-4.91,-7.57,-9.45,0,*59
1503450159.32,39267,15.31,73598.8,-4.93,-7.49,-9.57,0,*56
1503450160.59,39268,15.31,73586.3,-4.89,-7.35,-9.41,0,*5E
1503450161.84,39269,15.38,73594.0,-4.91,-7.57,-9.57,0,*55
1503450163.09,39270,15.38,73604.0,-4.91,-7.57,-9.61,0,*58
1503450164.32,39271,15.31,73608.5,-4.91,-7.57,-9.71,0,*58
1503450165.54,39272,15.38,73612.5,-4.91,-7.57,-9.05,0,*58
1503450166.78,39273,15.38,73608.8,-4.93,-7.31,-8.63,0,*5A
1503450168.0,39274,15.31,73598.3,-4.91,-6.81,-7.95,0,*53
1503450169.2,39275,15.38,73596.5,-4.91,-6.47,-8.37,0,*5F
1503450170.4,39276,15.31,73600.8,-4.91,-6.89,-9.05,0,*5E
1503450171.65,39277,15.38,73598.8,-4.89,-7.15,-9.15,0,*53
1503450172.88,39278,15.31,73592.3,-4.89,-7.27,-9.31,0,*5B
1503450174.13,39279,15.38,73588.3,-4.89,-7.35,-9.31,0,*59
1503450175.37,39280,15.31,73578.8,-4.87,-7.35,-9.11,0,*53
1503450176.64,39281,15.38,73578.0,-4.89,-7.27,-9.11,0,*5F
1503450177.88,39282,15.31,73554.5,-4.87,-7.27,-9.15,0,*56
1503450179.14,39283,15.31,73546.0,-4.89,-7.43,-9.01,0,*5E
1503450180.35,39284,15.38,73550.5,-4.87,-7.35,-8.75,0,*54
1503450181.55,39285,15.31,73546.8,-4.87,-7.15,-8.21,0,*56
1503450182.78,39286,15.38,73560.8,-4.89,-7.11,-8.89,0,*5D
1503450183.99,39287,15.31,73568.0,-4.87,-7.27,-9.31,0,*55
1503450185.27,39288,15.31,73568.8,-4.89,-7.35,-9.45,0,*54
1503450186.49,39289,15.31,73560.3,-4.87,-7.57,-9.67,0,*5F
1503450187.71,39290,15.31,73558.5,-4.87,-7.57,-9.31,0,*54
1503450188.95,39291,15.38,73576.3,-4.89,-7.35,-8.75,0,*5E
1503450190.17,39292,15.31,73588.3,-4.87,-7.27,-9.27,0,*56
1503450191.43,39293,15.38,73606.8,-4.89,-7.39,-9.57,0,*51
1503450192.68,39294,15.31,73576.3,-4.89,-7.35,-9.19,0,*50
1503450193.9,39295,15.31,73574.5,-4.87,-7.35,-9.27,0,*52
1503450195.14,39296,15.31,73576.5,-4.87,-7.39,-9.53,0,*5E
1503450196.37,39297,15.31,73588.0,-4.87,-7.53,-9.53,0,*53
1503450197.63,39298,15.31,73588.8,-4.89,-7.39,-9.45,0,*59
1503450198.89,39299,15.31,73596.8,-4.89,-7.65,-9.67,0,*51
1503450200.14,39300,15.38,73592.0,-4.89,-7.65,-9.71,0,*57
1503450201.36,39301,15.38,73572.0,-4.87,-7.65,-9.71,0,*58
1503450202.61,39302,15.38,73578.8,-4.89,-7.77,-9.79,0,*5E
1503450203.86,39303,15.31,73578.0,-4.89,-7.77,-9.79,0,*5F
1503450205.11,39304,15.38,73590.5,-4.89,-7.77,-9.79,0,*58
1503450206.38,39305,15.38,73590.3,-4.89,-7.91,-9.83,0,*54
1503450207.57,39306,15.31,73590.8,-4.91,-7.87,-9.75,0,*50
1503450208.8,39307,15.31,73594.3,-4.91,-7.83,-9.83,0,*5C
1503450210.07,39308,15.31,73598.8,-4.89,-7.77,-9.83,0,*51
1503450211.29,39309,15.31,73598.3,-4.91,-7.83,-9.83,0,*52
1503450212.51,39310,15.31,73594.5,-4.91,-7.83,-9.83,0,*5A
1503450213.74,39311,15.31,73604.5,-4.91,-7.73,-9.75,0,*5D
1503450214.98,39312,15.38,73604.5,-4.91,-7.61,-9.15,0,*5B
1503450216.2,39313,15.31,73594.0,-4.91,-7.61,-8.41,0,*5A
1503450217.47,39314,15.38,73586.0,-4.93,-7.39,-8.11,0,*57
1503450218.69,39315,15.31,73576.3,-4.91,-6.93,-7.49,0,*57
1503450219.92,39316,15.31,73572.5,-4.91,-6.59,-7.39,0,*55
1503450221.14,39317,15.38,73580.0,-4.91,-6.51,-7.73,0,*52
1503450222.34,39318,15.31,73574.8,-4.91,-6.59,-7.87,0,*5E
1503450223.61,39319,15.31,73568.5,-4.89,-6.63,-7.77,0,*50
1503450224.86,39320,15.31,73570.3,-4.89,-6.59,-8.03,0,*5F
1503450226.08,39321,15.31,73580.3,-4.89,-6.55,-8.33,0,*51
1503450227.33,39322,15.31,73588.0,-4.89,-6.59,-7.91,0,*59
1503450228.57,39323,15.31,73586.5,-4.89,-6.47,-7.57,0,*5D
1503450229.79,39324,15.31,73602.0,-4.87,-6.47,-8.03,0,*5A
1503450231.03,39325,15.31,73598.5,-4.89,-6.47,-8.51,0,*52
1503450232.26,39326,15.31,73590.8,-4.87,-6.97,-9.01,0,*56
1503450233.48,39327,15.38,73604.3,-4.87,-7.15,-9.11,0,*5D
1503450234.71,39328,15.38,73612.8,-4.89,-7.23,-9.27,0,*5C
1503450235.97,39329,15.31,73604.5,-4.89,-7.39,-9.41,0,*56
1503450237.24,39330,15.31,73592.5,-4.89,-7.39,-9.41,0,*5E
1503450238.51,39331,15.31,73588.3,-4.89,-7.43,-9.57,0,*55
1503450239.73,39332,15.31,73596.3,-4.87,-7.53,-9.41,0,*5E
1503450240.95,39333,15.31,73588.0,-4.89,-7.53,-9.67,0,*55
1503450242.23,39334,15.31,73584.0,-4.89,-7.57,-9.41,0,*52
1503450243.45,39335,15.31,73602.5,-4.87,-7.65,-9.71,0,*5F
1503450244.7,39336,15.31,73588.3,-4.87,-7.57,-9.57,0,*59
1503450245.95,39337,15.31,73594.0,-4.89,-7.65,-9.71,0,*53
1503450247.2,39338,15.31,73600.3,-4.89,-7.77,-9.71,0,*5F
1503450248.47,39339,15.31,73600.5,-4.89,-7.77,-9.83,0,*53
1503450249.72,39340,15.31,73600.5,-4.89,-7.91,-9.93,0,*54
1503450250.97,39341,15.31,73602.5,-4.89,-7.95,-9.97,0,*55
1503450252.21,39342,15.31,73602.8,-4.89,-7.95,-9.97,0,*56
1503450253.46,39343,15.31,73606.5,-4.89,-7.95,-9.97,0,*57
1503450254.72,39344,15.31,73606.8,-4.89,-8.03,-10.01,0,*67
1503450255.94,39345,15.31,73604.5,-4.91,-7.99,-10.05,0,*67
1503450257.17,39346,15.31,73608.5,-4.91,-8.07,-10.05,0,*6C
1503450258.42,39347,15.31,73614.0,-4.91,-8.07,-9.83,0,*5B
1503450259.64,39348,15.31,73614.5,-4.91,-7.99,-9.89,0,*56
1503450260.86,39349,15.31,73614.5,-4.91,-7.61,-8.55,0,*50
1503450262.1,39350,15.31,73610.8,-4.91,-7.31,-7.69,0,*5D
1503450263.33,39351,15.31,73598.8,-4.93,-6.77,-7.87,0,*5D
1503450264.58,39352,15.31,73594.0,-4.93,-6.69,-8.07,0,*56
1503450265.84,39353,15.31,73596.5,-4.93,-6.93,-8.81,0,*5C
1503450267.08,39354,15.31,73596.3,-4.93,-7.19,-9.01,0,*51
1503450268.3,39355,15.31,73596.5,-4.91,-7.43,-9.71,0,*5A
1503450269.53,39356,15.31,73596.3,-4.91,-7.73,-9.75,0,*5E
1503450270.72,39357,15.31,73598.0,-4.91,-7.83,-9.89,0,*53
1503450271.98,39358,15.31,73598.0,-4.93,-7.95,-10.01,0,*61
1503450273.24,39359,15.31,73602.0,-4.93,-7.99,-10.01,0,*6C
1503450274.5,39360,15.31,73606.3,-4.93,-8.07,-10.01,0,*6E
1503450275.73,39361,15.31,73600.0,-4.91,-8.07,-9.97,0,*5A
1503450276.97,39362,15.31,73596.5,-4.93,-7.99,-9.31,0,*5F
1503450278.19,39363,15.31,73592.8,-4.91,-7.73,-8.93,0,*51
1503450279.46,39364,15.31,73594.5,-4.93,-7.43,-8.51,0,*59
1503450280.73,39365,15.31,73594.0,-4.93,-7.39,-7.69,0,*51
1503450282.01,39366,15.31,73584.0,-4.93,-6.93,-7.27,0,*59
1503450283.26,39367,15.31,73590.3,-4.93,-6.51,-6.93,0,*58
1503450284.51,39368,15.31,73604.5,-4.93,-6.39,-7.73,0,*56
1503450285.72,39369,15.31,73608.8,-4.93,-6.59,-8.75,0,*58
1503450286.95,39370,15.31,73596.5,-4.93,-6.81,-9.01,0,*57
1503450288.2,39371,15.31,73594.8,-4.93,-7.01,-8.41,0,*5A
1503450289.45,39372,15.31,73596.8,-4.93,-7.01,-7.83,0,*58
1503450290.7,39373,15.31,73602.3,-4.93,-6.63,-7.87,0,*58
1503450291.91,39374,15.31,73608.3,-4.93,-6.77,-8.67,0,*5B
1503450293.13,39375,15.31,73600.0,-4.93,-6.89,-8.63,0,*5F
1503450294.35,39376,15.31,73606.8,-4.91,-7.15,-8.11,0,*5F
1503450295.58,39377,15.31,73608.3,-4.93,-6.77,-7.83,0,*5D
1503450296.81,39378,15.31,73608.8,-4.91,-6.51,-8.11,0,*50
1503450298.03,39379,15.31,73622.3,-4.91,-7.01,-8.41,0,*50
1503450299.27,39380,15.31,73610.0,-4.91,-7.31,-7.99,0,*5F
1503450300.47,39381,15.31,73602.3,-4.91,-6.89,-7.87,0,*53
1503450301.72,39382,15.31,73606.3,-4.93,-6.81,-7.43,0,*52
1503450302.94,39383,15.31,73596.0,-4.91,-6.69,-7.27,0,*55
1503450304.16,39384,15.31,73588.3,-4.91,-6.81,-7.69,0,*5E
1503450305.36,39385,15.31,73538.3,-4.91,-6.89,-7.83,0,*53
1503450306.59,39386,15.31,73552.3,-4.93,-7.15,-7.87,0,*52
1503450307.81,39387,15.31,73552.5,-4.91,-7.15,-7.99,0,*5E
1503450309.01,39388,15.31,73564.8,-4.91,-7.19,-7.87,0,*52
1503450310.23,39389,15.31,73574.5,-4.91,-7.19,-7.69,0,*53
1503450311.48,39390,15.31,73566.8,-4.91,-7.01,-7.43,0,*5A
1503450312.73,39391,15.31,73560.5,-4.89,-6.85,-7.91,0,*50
1503450313.95,39392,15.31,73570.5,-4.89,-6.73,-8.21,0,*5E
1503450315.17,39393,15.31,73580.3,-4.89,-6.73,-8.33,0,*5C
1503450316.37,39394,15.31,73570.5,-4.91,-6.77,-8.93,0,*5C
1503450317.59,39395,15.31,73598.5,-4.91,-6.93,-9.23,0,*5D
1503450318.81,39396,15.31,73580.0,-4.91,-7.31,-9.01,0,*57
1503450320.02,39397,15.31,73588.3,-4.91,-7.31,-8.75,0,*54
1503450321.27,39398,15.31,73590.5,-4.91,-7.31,-9.37,0,*5C
1503450322.48,39399,15.31,73590.3,-4.91,-7.49,-9.57,0,*54
1503450323.73,39400,15.31,73588.0,-4.91,-7.61,-9.37,0,*5F
1503450324.98,39401,15.31,73594.3,-4.91,-7.43,-9.37,0,*5E
1503450326.2,39402,15.31,73598.0,-4.91,-7.69,-9.75,0,*53
1503450327.42,39403,15.31,73598.3,-4.91,-7.83,-9.83,0,*5F
1503450328.62,39404,15.31,73592.5,-4.91,-7.87,-9.89,0,*56
1503450329.84,39405,15.31,73598.3,-4.91,-7.87,-9.83,0,*5D
1503450331.09,39406,15.31,73598.0,-4.91,-7.73,-9.83,0,*55
1503450332.36,39407,15.31,73604.3,-4.93,-7.95,-9.83,0,*5E
1503450333.61,39408,15.31,73606.0,-4.93,-7.95,-9.97,0,*54
1503450334.86,39409,15.31,73600.3,-4.93,-7.95,-9.97,0,*55
1503450336.11,39410,15.31,73606.0,-4.93,-7.95,-10.05,0,*6E
1503450337.36,39411,15.31,73596.0,-4.93,-7.99,-9.97,0,*50
1503450338.63,39412,15.31,73592.3,-4.93,-7.99,-9.61,0,*5A
1503450339.87,39413,15.31,73594.3,-4.93,-7.69,-9.05,0,*56
1503450341.15,39414,15.31,73598.0,-4.93,-7.57,-9.37,0,*5D
1503450342.4,39415,15.31,73590.8,-4.93,-7.49,-9.83,0,*5C
1503450343.65,39416,15.31,73590.8,-4.93,-7.69,-9.75,0,*54
1503450344.87,39417,15.31,73596.5,-4.95,-7.91,-10.01,0,*6F
1503450346.09,39418,15.31,73616.5,-4.95,-7.91,-9.93,0,*53
1503450347.31,39419,15.31,73602.3,-4.95,-7.73,-9.79,0,*5A
1503450348.53,39420,15.31,73590.5,-4.95,-7.77,-9.93,0,*50
1503450349.75,39421,15.31,73592.0,-4.95,-7.99,-9.93,0,*51
1503450350.98,39422,15.31,73602.5,-4.95,-7.99,-10.05,0,*65
1503450352.2,39423,15.31,73602.8,-4.95,-8.03,-10.05,0,*68
1503450353.42,39424,15.31,73596.5,-4.95,-8.11,-10.09,0,*60
1503450354.69,39425,15.31,73598.8,-4.97,-8.11,-10.19,0,*62
1503450355.94,39426,15.31,73596.3,-4.97,-8.11,-10.09,0,*60
1503450357.17,39427,15.31,73598.8,-4.95,-8.11,-10.09,0,*63
1503450358.43,39428,15.31,73596.5,-4.97,-8.11,-10.19,0,*6F
1503450359.69,39429,15.31,73602.5,-4.97,-8.11,-10.09,0,*6F
1503450360.92,39430,15.31,73606.8,-4.95,-8.11,-10.19,0,*64
1503450362.16,39431,15.31,73600.3,-4.95,-8.11,-10.19,0,*65
1503450363.39,39432,15.31,73600.5,-4.97,-8.17,-10.19,0,*62
1503450364.62,39433,15.31,73606.0,-4.97,-8.25,-10.09,0,*63
1503450365.85,39434,15.31,73598.8,-4.97,-8.17,-10.23,0,*6D
1503450367.08,39435,15.31,73600.8,-5.03,-8.21,-10.23,0,*65
1503450368.28,39436,15.31,73604.3,-5.01,-8.21,-10.23,0,*64
1503450369.47,39437,15.31,73604.8,-5.01,-8.21,-10.23,0,*65
1503450370.7,39438,15.31,73604.0,-5.03,-8.17,-10.23,0,*6D
1503450371.93,39439,15.31,73604.0,-5.03,-8.17,-10.23,0,*6C
1503450373.13,39440,15.31,73596.3,-5.01,-8.17,-10.23,0,*60
1503450374.36,39441,15.31,73596.3,-5.03,-8.17,-10.15,0,*66
1503450375.56,39442,15.31,73596.8,-5.01,-8.17,-10.15,0,*67
1503450376.79,39443,15.31,73588.8,-5.03,-8.17,-10.23,0,*61
1503450378.02,39444,15.31,73592.5,-5.03,-8.17,-10.23,0,*66
1503450379.25,39445,15.31,73598.5,-5.03,-8.29,-10.35,0,*6D
1503450380.48,39446,15.31,73596.5,-5.03,-8.29,-10.27,0,*6D
1503450381.7,39447,15.31,73600.3,-5.03,-8.29,-10.27,0,*6C
1503450382.91,39448,15.31,73600.8,-5.05,-8.25,-10.31,0,*6E
1503450384.12,39449,15.31,73604.3,-5.05,-8.25,-10.31,0,*6F
1503450385.33,39450,15.31,73606.3,-5.05,-8.25,-10.31,0,*67
1503450386.54,39451,15.31,73608.0,-5.05,-8.25,-10.27,0,*61
1503450387.77,39452,15.31,73608.5,-5.07,-8.25,-10.31,0,*67
1503450389.0,39453,15.31,73606.3,-5.07,-8.33,-10.31,0,*61
1503450390.21,39454,15.31,73608.3,-5.05,-8.25,-10.27,0,*64
1503450391.48,39455,15.31,73608.0,-5.07,-8.07,-9.83,0,*51
1503450392.73,39456,15.31,73610.5,-5.07,-7.95,-9.71,0,*5B
1503450394.0,39457,15.31,73604.5,-5.07,-7.69,-9.49,0,*52
1503450395.26,39458,15.31,73588.8,-5.07,-7.57,-8.81,0,*55
1503450396.5,39459,15.38,73598.3,-5.07,-7.27,-8.63,0,*5F
1503450397.77,39460,15.31,73602.8,-5.07,-7.05,-8.51,0,*54
1503450398.98,39461,15.31,73608.0,-5.05,-7.01,-8.67,0,*56
1503450400.25,39462,15.31,73600.3,-5.07,-7.27,-9.37,0,*57
1503450401.48,39463,15.31,73592.3,-5.05,-7.69,-9.71,0,*5C
1503450402.7,39464,15.31,73598.0,-5.05,-7.69,-9.75,0,*5F
1503450403.9,39465,15.31,73584.8,-5.05,-7.87,-9.75,0,*5E
1503450405.12,39466,15.31,73584.8,-5.05,-7.95,-9.71,0,*5A
1503450406.32,39467,15.31,73596.8,-5.05,-7.87,-9.75,0,*5C
1503450407.6,39468,15.31,73586.0,-5.07,-7.73,-9.61,0,*5F
1503450408.84,39469,15.31,73578.8,-5.05,-7.69,-9.61,0,*57
1503450410.1,39470,15.31,73590.0,-5.05,-7.73,-9.83,0,*58
1503450411.32,39471,15.31,73590.5,-5.05,-7.83,-9.83,0,*56
1503450412.54,39472,15.31,73582.0,-5.07,-7.87,-9.89,0,*59
1503450413.77,39473,15.31,73590.5,-5.05,-7.83,-9.83,0,*54
1503450414.99,39474,15.31,73596.5,-5.05,-7.87,-9.61,0,*5B
1503450416.21,39475,15.31,73608.3,-5.05,-7.95,-9.71,0,*58
1503450417.42,39476,15.31,73610.5,-5.05,-7.87,-10.01,0,*67
1503450418.62,39477,15.31,73600.0,-5.05,-7.87,-9.97,0,*51
1503450419.82,39478,15.31,73596.5,-5.05,-7.83,-9.89,0,*55
1503450421.02,39479,15.31,73588.5,-5.05,-7.87,-9.89,0,*50
1503450422.24,39480,15.31,73596.5,-5.05,-7.95,-9.97,0,*5A
1503450423.48,39481,15.31,73594.3,-5.05,-7.95,-10.01,0,*6C
1503450424.7,39482,15.31,73606.3,-5.05,-7.95,-9.97,0,*58
1503450425.93,39483,15.31,73610.0,-5.05,-7.99,-10.01,0,*62
1503450427.17,39484,15.31,73598.0,-5.05,-7.95,-10.01,0,*69
1503450428.4,39485,15.31,73588.8,-5.05,-8.07,-10.09,0,*64
1503450429.63,39486,15.31,73588.5,-5.05,-8.07,-10.09,0,*67
1503450430.87,39487,15.31,73594.0,-5.05,-8.07,-10.19,0,*67
1503450432.1,39488,15.31,73592.5,-5.07,-8.21,-10.27,0,*63
1503450433.33,39489,15.31,73598.0,-5.07,-8.21,-10.19,0,*6F
1503450434.59,39490,15.31,73594.3,-5.07,-8.11,-10.19,0,*64
1503450435.83,39491,15.31,73596.5,-5.05,-8.11,-10.19,0,*67
1503450437.06,39492,15.31,73598.0,-5.07,-8.21,-10.19,0,*65
1503450438.32,39493,15.31,73598.0,-5.07,-8.11,-10.19,0,*67
1503450439.55,39494,15.31,73604.0,-5.07,-8.21,-10.19,0,*63
1503450440.79,39495,15.31,73612.0,-5.07,-8.21,-10.19,0,*62
1503450442.04,39496,15.31,73608.5,-5.07,-8.11,-10.09,0,*63
1503450443.27,39497,15.31,73612.0,-5.07,-8.21,-10.15,0,*6C
1503450444.53,39498,15.31,73604.0,-5.07,-8.11,-10.19,0,*6C
1503450445.79,39499,15.31,73606.5,-5.07,-8.11,-10.15,0,*61
1503450447.0,39500,15.31,73606.5,-5.09,-8.17,-10.19,0,*64
1503450448.25,39501,15.31,73608.5,-5.07,-7.99,-10.09,0,*63
1503450449.51,39502,15.31,73608.3,-5.07,-8.07,-10.15,0,*65
1503450450.74,39503,15.31,73606.5,-5.07,-8.21,-10.19,0,*6C
1503450451.94,39504,15.31,73610.5,-5.09,-8.25,-10.23,0,*68
1503450453.14,39505,15.31,73614.0,-5.09,-8.25,-10.23,0,*69
1503450454.35,39506,15.31,73610.0,-5.09,-8.25,-10.23,0,*6A
1503450455.55,39507,15.31,73602.5,-5.09,-8.25,-10.31,0,*68
1503450456.76,39508,15.31,73598.0,-5.09,-8.17,-10.27,0,*61
1503450457.97,39509,15.31,73604.8,-5.09,-8.17,-10.23,0,*64
1503450459.2,39510,15.31,73614.0,-5.09,-8.03,-10.19,0,*60
1503450460.43,39511,15.31,73612.0,-5.09,-8.11,-10.15,0,*6E
1503450461.67,39512,15.31,73608.5,-5.09,-8.11,-10.19,0,*61
1503450462.9,39513,15.31,73604.5,-5.09,-8.11,-10.15,0,*6C
1503450464.11,39514,15.31,73610.5,-5.09,-8.21,-10.19,0,*64
1503450465.32,39515,15.31,73614.3,-5.09,-8.17,-10.19,0,*60
1503450466.53,39516,15.31,73614.3,-5.09,-8.25,-10.19,0,*62
1503450467.73,39517,15.31,73616.0,-5.09,-8.29,-10.23,0,*66
1503450468.93,39518,15.31,73614.3,-5.09,-8.21,-10.23,0,*61
1503450470.16,39519,15.31,73606.5,-5.11,-8.29,-10.27,0,*65
1503450471.39,39520,15.31,73608.5,-5.11,-8.29,-10.27,0,*6F
1503450472.6,39521,15.31,73614.3,-5.09,-8.25,-10.31,0,*6C
1503450473.83,39522,15.31,73612.8,-5.11,-8.29,-10.27,0,*6D
1503450475.06,39523,15.31,73616.8,-5.11,-8.21,-10.19,0,*69
1503450476.28,39524,15.31,73620.3,-5.11,-8.29,-9.93,0,*5C
1503450477.52,39525,15.31,73624.0,-5.11,-7.95,-9.93,0,*55
1503450478.77,39526,15.31,73622.0,-5.11,-7.95,-10.09,0,*6D
1503450480.01,39527,15.31,73614.3,-5.09,-8.11,-10.19,0,*67
1503450481.22,39528,15.31,73608.5,-5.09,-8.17,-10.19,0,*6E
1503450482.45,39529,15.31,73594.5,-5.11,-8.29,-10.27,0,*66
1503450483.68,39530,15.31,73590.3,-5.11,-8.21,-10.27,0,*66
1503450484.91,39531,15.31,73598.5,-5.11,-8.21,-10.35,0,*64
1503450486.14,39532,15.31,73600.5,-5.11,-8.17,-10.19,0,*6C
1503450487.37,39533,15.31,73602.5,-5.11,-8.17,-10.23,0,*64
1503450488.57,39534,15.31,73598.0,-5.13,-8.21,-10.23,0,*64
1503450489.77,39535,15.31,73608.3,-5.13,-8.17,-10.23,0,*60
1503450490.98,39536,15.31,73614.5,-5.13,-8.17,-10.23,0,*63
1503450492.18,39537,15.31,73618.8,-5.13,-8.21,-10.23,0,*67
1503450493.41,39538,15.31,73612.0,-5.13,-8.03,-10.19,0,*61
1503450494.63,39539,15.31,73610.8,-5.13,-7.95,-10.05,0,*6D
1503450495.86,39540,15.31,73600.3,-5.13,-7.61,-9.67,0,*54
1503450497.08,39541,15.31,73596.5,-5.13,-7.61,-9.67,0,*55
1503450498.33,39542,15.31,73602.0,-5.11,-7.61,-9.67,0,*54
1503450499.58,39543,15.31,73606.5,-5.11,-7.65,-9.71,0,*56
1503450500.85,39544,15.31,73608.8,-5.11,-7.77,-9.83,0,*5F
1503450502.07,39545,15.31,73610.0,-5.09,-7.91,-9.93,0,*5E
1503450503.29,39546,15.31,73614.5,-5.09,-7.91,-9.93,0,*5D
1503450504.52,39547,15.31,73612.0,-5.09,-7.99,-10.01,0,*67
1503450505.75,39548,15.31,73614.8,-5.09,-7.99,-10.05,0,*6C
1503450507.0,39549,15.31,73614.0,-5.11,-8.07,-10.05,0,*6C
1503450508.23,39550,15.31,73614.5,-5.09,-8.11,-10.05,0,*6A